TimeMDT,TemperatureF,Dew PointF,Humidity,Sea Level PressureIn,VisibilityMPH,Wind Direction,Wind SpeedMPH,Gust SpeedMPH,PrecipitationIn,Events,Conditions,WindDirDegrees,DateUTC
12:00 AM,22,22,100,29.89,,NNW,19.6,,,,,330,2013-09-12 06:00:00
12:00 AM,57.2,48.2,72,30.27,9.0,East,3.5,-,N/A,,Clear,80,2013-09-12 06:00:00
1:00 AM,57.2,48.2,72,30.27,9.0,Calm,Calm,-,N/A,,Clear,0,2013-09-12 07:00:00
2:00 AM,53.6,48.2,82,30.27,9.0,ENE,2.3,-,N/A,,Clear,60,2013-09-12 08:00:00
3:00 AM,51.8,48.2,88,30.27,9.0,Variable,2.3,-,N/A,,Clear,0,2013-09-12 09:00:00
4:00 AM,51.8,48.2,88,30.27,9.0,Calm,Calm,-,N/A,,Clear,0,2013-09-12 10:00:00
5:00 AM,51.8,48.2,88,30.26,9.0,Calm,Calm,-,N/A,,Clear,0,2013-09-12 11:00:00
6:00 AM,22,21,95,29.93,,NNW,20.7,,,,,340,2013-09-12 12:00:00
6:00 AM,51.8,48.2,88,30.25,9.0,East,2.3,-,N/A,,Clear,80,2013-09-12 12:00:00
7:00 AM,51.8,46.4,82,30.25,30.0,North,2.3,-,N/A,,Clear,350,2013-09-12 13:00:00
8:00 AM,53.6,51.8,94,30.26,30.0,North,2.3,-,N/A,,Clear,350,2013-09-12 14:00:00
9:00 AM,59.0,48.2,67,30.25,30.0,NNE,2.3,-,N/A,,Clear,20,2013-09-12 15:00:00
10:00 AM,66.2,46.4,49,30.25,30.0,North,2.3,-,N/A,,Clear,10,2013-09-12 16:00:00
11:00 AM,73.4,48.2,41,30.22,30.0,Calm,Calm,-,N/A,,Clear,0,2013-09-12 17:00:00
12:00 PM,21,20,94,29.94,,NNW,19.6,,,,,330,2013-09-12 18:00:00
12:00 PM,77.0,48.2,36,30.19,30.0,ESE,4.6,-,N/A,,Clear,110,2013-09-12 18:00:00
1:00 PM,78.8,44.6,30,30.17,30.0,ESE,4.6,-,N/A,,Clear,110,2013-09-12 19:00:00
2:00 PM,80.6,44.6,28,30.14,30.0,East,4.6,-,N/A,,Clear,90,2013-09-12 20:00:00
3:00 PM,82.4,44.6,26,30.12,30.0,South,12.7,-,N/A,,Clear,170,2013-09-12 21:00:00
4:00 PM,82.4,44.6,26,30.09,30.0,South,9.2,-,N/A,,Clear,180,2013-09-12 22:00:00
5:00 PM,82.4,41.0,23,30.07,30.0,SE,11.5,-,N/A,,Clear,140,2013-09-12 23:00:00
6:00 PM,82.4,41.0,23,30.05,30.0,SSE,10.4,-,N/A,,Clear,160,2013-09-13 00:00:00
7:00 PM,77.0,44.6,32,30.04,30.0,SSE,6.9,-,N/A,,Clear,150,2013-09-13 01:00:00
8:00 PM,69.8,46.4,43,30.04,30.0,SE,5.8,-,N/A,,Clear,140,2013-09-13 02:00:00
9:00 PM,66.2,46.4,49,30.03,30.0,ESE,3.5,-,N/A,,Clear,120,2013-09-13 03:00:00
10:00 PM,66.2,48.2,52,30.01,9.0,ESE,3.5,-,N/A,,Clear,110,2013-09-13 04:00:00
11:00 PM,60.8,50.0,68,29.99,9.0,NNE,4.6,-,N/A,,Clear,30,2013-09-13 05:00:00